CW6726 Weather Reports


Display with metric or nautical units.
time (UTC)temp
F
wind
direction
speed
MPH
gust
MPH
rain 1hr
in
rain 24hr
in
rain mn
in
humidity
%
barometer
mb
20260506175105 58 13 6.0 9.0 0.00 0.00 0.00 55 1010.2
20260506173605 58 19 5.0 10.0 0.00 0.00 0.00 57 1010.1
20260506173105 58 24 5.0 12.0 0.00 0.00 0.00 57 1010.1
20260506172605 58 11 5.0 12.0 0.00 0.00 0.00 55 1010.1
20260506172106 58 8 5.0 7.0 0.00 0.00 0.00 55 1010.1
20260506171605 58 11 5.0 8.0 0.00 0.00 0.00 53 1010.0
20260506170105 58 352 5.0 12.0 0.00 0.00 0.00 54 1010.0
20260506164606 58 12 3.0 8.0 0.00 0.00 0.00 51 1010.0
20260506164105 59 51 5.0 9.0 0.00 0.00 0.00 51 1010.0
20260506160605 59 14 5.0 12.0 0.00 0.00 0.00 51 1010.0
20260506160105 59 21 7.0 10.0 0.00 0.00 0.00 52 1010.0
20260506155104 59 52 1.0 7.0 0.00 0.00 0.00 51 1010.0
20260506154604 59 18 4.0 9.0 0.00 0.00 0.00 51 1010.0
20260506154104 59 17 6.0 12.0 0.00 0.00 0.00 50 1010.1
20260506153105 59 340 4.0 9.0 0.00 0.00 0.00 52 1010.0
20260506152106 59 350 4.0 9.0 0.00 0.00 0.00 50 1010.0
20260506151605 59 349 3.0 8.0 0.00 0.00 0.00 50 1010.0
20260506151105 59 351 5.0 9.0 0.00 0.00 0.00 50 1010.1
20260506150605 59 13 5.0 12.0 0.00 0.00 0.00 50 1010.1
20260506145105 59 323 6.0 12.0 0.00 0.00 0.00 49 1010.2
20260506144605 60 9 6.0 10.0 0.00 0.00 0.00 50 1010.2
20260506143105 60 3 7.0 12.0 0.00 0.00 0.00 50 1010.2
20260506142605 61 20 5.0 15.0 0.00 0.00 0.00 50 1010.2
20260506142105 61 320 2.0 9.0 0.00 0.00 0.00 51 1010.1
20260506141104 59 300 5.0 9.0 0.00 0.00 0.00 52 1010.2
20260506135104 59 13 6.0 10.0 0.00 0.00 0.00 51 1010.4
20260506133105 60 38 5.0 12.0 0.00 0.00 0.00 51 1010.3
20260506132105 60 352 8.0 14.0 0.00 0.00 0.00 52 1010.2
20260506123604 60 344 6.0 12.0 0.00 0.00 0.00 53 1010.5
20260506123106 60 356 7.0 13.0 0.00 0.00 0.00 52 1010.5
20260506122105 59 7 7.0 12.0 0.00 0.00 0.00 52 1010.5
20260506121605 58 35 6.0 14.0 0.00 0.00 0.00 53 1010.5
20260506120105 58 14 5.0 12.0 0.00 0.00 0.00 54 1010.6
20260506115104 59 25 3.0 12.0 0.00 0.00 0.00 53 1010.6
20260506114605 58 337 7.0 12.0 0.00 0.00 0.00 53 1010.7
20260506114104 59 13 6.0 15.0 0.00 0.00 0.00 51 1010.7
20260506112606 57 0 5.0 13.0 0.00 0.00 0.00 54 1010.7
20260506112105 57 14 7.0 10.0 0.00 0.00 0.00 56 1010.7
20260506110605 57 30 6.0 12.0 0.00 0.00 0.00 54 1010.7
20260506104605 56 355 7.0 14.0 0.00 0.00 0.00 57 1010.8
20260506103104 56 13 5.0 9.0 0.00 0.00 0.00 59 1010.7
20260506101605 56 19 6.0 13.0 0.00 0.00 0.00 58 1010.7
20260506101105 56 15 6.0 12.0 0.00 0.00 0.00 58 1010.7
20260506100606 56 39 7.0 13.0 0.00 0.00 0.00 62 1010.7
20260506100106 55 8 5.0 10.0 0.00 0.01 0.00 63 1010.7
20260506095105 54 0 5.0 12.0 0.00 0.01 0.00 63 1010.8
20260506094605 55 17 6.0 13.0 0.00 0.01 0.00 64 1010.8
20260506094108 54 352 8.0 14.0 0.00 0.01 0.00 63 1010.8
20260506093105 54 4 5.0 14.0 0.00 0.01 0.00 65 1010.8
20260506092104 54 23 6.0 12.0 0.00 0.01 0.00 65 1010.8
20260506091105 53 9 6.0 13.0 0.00 0.01 0.00 69 1010.8
20260506090605 52 0 4.0 12.0 0.00 0.01 0.00 69 1010.8
20260506085104 52 30 6.0 10.0 0.00 0.01 0.00 70 1010.8
20260506084105 52 9 7.0 12.0 0.00 0.01 0.00 71 1010.8
20260506083605 52 5 4.0 8.0 0.00 0.01 0.00 72 1010.8
20260506081104 50 16 6.0 14.0 0.00 0.01 0.00 73 1010.8
20260506080605 50 24 5.0 10.0 0.00 0.01 0.00 74 1010.8
20260506080105 50 15 5.0 10.0 0.00 0.01 0.00 75 1010.7
20260506072605 48 20 5.0 12.0 0.00 0.01 0.00 77 1010.7
20260506072105 48 29 5.0 12.0 0.00 0.01 0.00 78 1010.7
20260506070605 48 4 5.0 10.0 0.00 0.01 0.00 78 1010.6
20260506070106 48 5 2.0 7.0 0.00 0.01 0.00 79 1010.6
20260506061604 48 26 3.0 8.0 0.00 0.01 0.00 80 1010.5
20260506061106 48 24 4.0 8.0 0.00 0.01 0.00 80 1010.4
20260506050105 48 15 3.0 6.0 0.00 0.01 0.00 82 1010.0
20260506044105 49 18 5.0 8.0 0.00 0.01 0.00 82 1009.8
20260506042105 49 18 5.0 8.0 0.00 0.01 0.00 82 1009.7
20260506041604 49 26 5.0 10.0 0.00 0.01 0.00 82 1009.8
20260506040605 49 20 5.0 10.0 0.00 0.01 0.00 82 1009.7
20260506040105 49 6 3.0 6.0 0.00 0.01 0.00 83 1009.7
20260506034104 49 9 3.0 7.0 0.00 0.01 0.00 82 1009.7
20260506033604 49 11 5.0 9.0 0.00 0.01 0.00 82 1009.7
20260506033105 49 9 3.0 7.0 0.00 0.01 0.00 82 1009.7
20260506032605 49 13 5.0 8.0 0.00 0.01 0.00 82 1009.7
20260506032105 50 5 3.0 6.0 0.00 0.01 0.00 82 1009.7
20260506031105 50 24 5.0 9.0 0.00 0.01 0.00 81 1009.7
20260506024605 50 14 1.0 7.0 0.00 0.01 0.00 81 1009.7
20260506024105 50 29 5.0 8.0 0.00 0.01 0.00 81 1009.7
20260506023105 50 26 5.0 7.0 0.00 0.01 0.00 80 1009.8
20260506022105 50 18 3.0 9.0 0.00 0.01 0.00 80 1009.8
20260506020605 51 16 3.0 5.0 0.00 0.01 0.00 79 1009.8
20260506015605 51 15 4.0 9.0 0.00 0.01 0.00 78 1009.8
20260506014605 51 12 4.0 7.0 0.00 0.01 0.00 78 1009.9
20260506014105 51 11 3.0 7.0 0.00 0.01 0.00 78 1009.8
20260506013605 51 10 3.0 7.0 0.00 0.01 0.00 78 1009.8
20260506012605 51 15 5.0 8.0 0.00 0.01 0.00 77 1009.8
20260506011605 52 8 3.0 12.0 0.00 0.01 0.00 77 1009.8
20260506010605 52 40 2.0 12.0 0.00 0.01 0.00 78 1009.8
20260506005105 52 34 5.0 9.0 0.00 0.01 0.00 78 1009.9
20260506004604 52 21 3.0 6.0 0.00 0.01 0.00 78 1009.9
20260506004105 52 24 5.0 12.0 0.00 0.01 0.00 78 1009.8
20260506003605 52 41 2.0 6.0 0.00 0.01 0.00 78 1009.8
20260506002106 53 53 5.0 9.0 0.00 0.01 0.00 77 1009.8
20260506000604 53 27 3.0 7.0 0.00 0.01 0.00 76 1009.8
20260505234604 53 16 5.0 8.0 0.00 0.01 0.00 76 1009.8
20260505234105 54 18 2.0 7.0 0.00 0.01 0.00 76 1009.8
20260505225105 54 38 5.0 9.0 0.00 0.01 0.01 74 1009.5
20260505223605 55 17 4.0 7.0 0.00 0.01 0.01 74 1009.6
20260505223104 55 11 5.0 9.0 0.00 0.01 0.01 74 1009.6
20260505222605 55 30 6.0 12.0 0.00 0.01 0.01 75 1009.6
20260505221605 55 10 3.0 7.0 0.00 0.01 0.01 74 1009.6
20260505221105 55 10 3.0 7.0 0.00 0.01 0.01 74 1009.6
20260505220605 55 10 2.0 6.0 0.00 0.01 0.01 73 1009.6
20260505220105 55 9 2.0 5.0 0.00 0.01 0.01 73 1009.6
20260505214605 55 9 5.0 7.0 0.00 0.01 0.01 72 1009.5
20260505213105 55 9 3.0 9.0 0.00 0.01 0.01 71 1009.5
20260505212105 55 355 2.0 7.0 0.00 0.02 0.01 71 1009.5
20260505211604 55 355 3.0 6.0 0.00 0.02 0.01 71 1009.5
20260505211104 55 347 4.0 7.0 0.00 0.02 0.01 71 1009.5
20260505210106 56 0 3.0 6.0 0.00 0.02 0.01 72 1009.5
20260505205604 56 0 2.0 6.0 0.00 0.02 0.01 72 1009.5
20260505204104 56 0 2.0 6.0 0.00 0.02 0.01 71 1009.4
20260505202605 56 0 3.0 6.0 0.00 0.02 0.01 71 1009.4
20260505201604 56 0 3.0 5.0 0.00 0.03 0.01 71 1009.4
20260505200105 57 0 1.0 3.0 0.00 0.03 0.01 71 1009.3
20260505194604 57 5 3.0 6.0 0.00 0.03 0.01 70 1009.1
20260505193105 57 9 2.0 6.0 0.00 0.03 0.01 70 1009.0
20260505191605 57 9 3.0 6.0 0.00 0.03 0.01 70 1008.9
20260505190605 57 10 2.0 8.0 0.00 0.03 0.01 69 1008.9
20260505185104 58 11 2.0 8.0 0.00 0.04 0.01 69 1008.9
20260505184605 58 7 5.0 12.0 0.00 0.04 0.01 69 1008.9
20260505183605 58 355 2.0 6.0 0.00 0.05 0.01 69 1008.8
20260505183105 58 355 3.0 8.0 0.00 0.05 0.01 69 1008.8
20260505182604 58 355 5.0 6.0 0.00 0.05 0.01 68 1008.8
20260505182106 58 355 3.0 8.0 0.00 0.05 0.01 68 1008.7